• In Deutschland
  • Länderverzeichnis
  • Für 7 Tage
  • Wassertemperatur
  • Satellitenkarten
  • Wetterkarte
  • Widgets
  • user-avatar
    Anmelden

    Stündliche Wetter Dillenburg

    Heute, 21 Juli, Samstag

    Zeit Temperatur Niederschläge Wind Luftdruck Luftfeuchtigkeit
    00:00 +20°C° 0 mm 1 m/S 732 mmHg 66%
    01:00 +19°C° 0 mm 1 m/S 732 mmHg 64%
    02:00 +19°C° 0,1 mm 1 m/S 732 mmHg 68%
    03:00 +18°C° 0,1 mm 1 m/S 731 mmHg 72%
    04:00 +18°C° 0,1 mm 1 m/S 731 mmHg 75%
    05:00 +17°C° 0 mm 0 m/S 732 mmHg 74%
    06:00 +18°C° 0 mm 0 m/S 732 mmHg 73%
    07:00 +19°C° 0 mm 0 m/S 732 mmHg 72%
    08:00 +22°C° 0 mm 1 m/S 732 mmHg 65%
    09:00 +24°C° 0 mm 1 m/S 732 mmHg 59%
    10:00 +26°C° 0 mm 1 m/S 733 mmHg 52%
    11:00 +27°C° 0 mm 1 m/S 733 mmHg 48%
    12:00 +29°C° 0 mm 1 m/S 733 mmHg 45%
    13:00 +30°C° 0 mm 1 m/S 733 mmHg 41%
    14:00 +29°C° 0,1 mm 1 m/S 732 mmHg 45%
    15:00 +28°C° 0,1 mm 1 m/S 732 mmHg 49%
    16:00 +27°C° 0,1 mm 1 m/S 732 mmHg 53%
    17:00 +26°C° 0,2 mm 1 m/S 732 mmHg 59%
    18:00 +25°C° 0,2 mm 1 m/S 732 mmHg 65%
    19:00 +24°C° 0,2 mm 1 m/S 732 mmHg 71%
    20:00 +23°C° 0 mm 1 m/S 732 mmHg 74%
    21:00 +21°C° 0 mm 1 m/S 732 mmHg 78%
    22:00 +20°C° 0 mm 1 m/S 732 mmHg 81%
    23:00 +20°C° 0,1 mm 1 m/S 732 mmHg 83%

    Morgen, 22 Juli, Sonntag

    Zeit Temperatur Niederschläge Wind Luftdruck Luftfeuchtigkeit
    00:00 +19°C° 0,1 mm 1 m/S 733 mmHg 85%
    01:00 +19°C° 0,1 mm 1 m/S 733 mmHg 87%
    02:00 +18°C° 0 mm 1 m/S 733 mmHg 87%
    03:00 +18°C° 0 mm 1 m/S 733 mmHg 88%
    04:00 +16°C° 0 mm 1 m/S 733 mmHg 89%
    05:00 +18°C° 0,1 mm 1 m/S 733 mmHg 87%
    06:00 +19°C° 0,1 mm 1 m/S 733 mmHg 86%
    07:00 +20°C° 0,1 mm 1 m/S 734 mmHg 84%
    08:00 +21°C° 0,3 mm 2 m/S 734 mmHg 79%
    09:00 +23°C° 0,3 mm 2 m/S 734 mmHg 75%
    10:00 +24°C° 0,3 mm 2 m/S 734 mmHg 70%
    11:00 +25°C° 0,3 mm 3 m/S 734 mmHg 64%
    12:00 +26°C° 0,3 mm 3 m/S 734 mmHg 58%
    13:00 +27°C° 0,3 mm 3 m/S 734 mmHg 53%
    14:00 +27°C° 0,2 mm 3 m/S 734 mmHg 52%
    15:00 +27°C° 0,2 mm 3 m/S 734 mmHg 52%
    16:00 +28°C° 0,2 mm 3 m/S 734 mmHg 51%
    17:00 +26°C° 0,1 mm 3 m/S 734 mmHg 56%
    18:00 +25°C° 0,1 mm 2 m/S 734 mmHg 61%
    19:00 +24°C° 0,1 mm 2 m/S 734 mmHg 67%
    20:00 +23°C° 0 mm 2 m/S 734 mmHg 72%
    21:00 +21°C° 0 mm 1 m/S 734 mmHg 76%
    22:00 +19°C° 0 mm 1 m/S 735 mmHg 81%
    23:00 +19°C° 0 mm 1 m/S 735 mmHg 83%

    übermorgen, 23 Juli, Montag

    Zeit Temperatur Niederschläge Wind Luftdruck Luftfeuchtigkeit
    00:00 +18°C° 0 mm 1 m/S 735 mmHg 84%
    01:00 +16°C° 0 mm 1 m/S 735 mmHg 86%
    02:00 +16°C° 0 mm 1 m/S 735 mmHg 87%
    03:00 +16°C° 0 mm 1 m/S 735 mmHg 87%
    04:00 +15°C° 0 mm 1 m/S 735 mmHg 88%
    05:00 +18°C° 0 mm 1 m/S 736 mmHg 84%
    06:00 +19°C° 0 mm 1 m/S 736 mmHg 80%
    07:00 +20°C° 0 mm 1 m/S 736 mmHg 76%
    08:00 +22°C° 0 mm 1 m/S 736 mmHg 70%
    09:00 +23°C° 0 mm 1 m/S 736 mmHg 63%
    10:00 +25°C° 0 mm 1 m/S 736 mmHg 57%
    11:00 +26°C° 0 mm 1 m/S 736 mmHg 54%
    12:00 +26°C° 0 mm 1 m/S 736 mmHg 52%
    13:00 +27°C° 0 mm 2 m/S 736 mmHg 49%
    14:00 +27°C° 0 mm 2 m/S 736 mmHg 51%
    15:00 +27°C° 0 mm 2 m/S 736 mmHg 52%
    16:00 +27°C° 0 mm 2 m/S 736 mmHg 54%
    17:00 +26°C° 0 mm 1 m/S 736 mmHg 59%
    18:00 +26°C° 0 mm 1 m/S 736 mmHg 63%
    19:00 +25°C° 0 mm 1 m/S 736 mmHg 68%
    20:00 +23°C° 0 mm 1 m/S 736 mmHg 74%
    21:00 +22°C° 0 mm 1 m/S 736 mmHg 80%
    22:00 +20°C° 0 mm 1 m/S 736 mmHg 85%
    23:00 +20°C° 0 mm 1 m/S 736 mmHg 87%

    24 Juli, Dienstag

    Zeit Temperatur Niederschläge Wind Luftdruck Luftfeuchtigkeit
    00:00 +19°C° 0 mm 1 m/S 736 mmHg 89%
    01:00 +19°C° 0 mm 1 m/S 736 mmHg 91%
    02:00 +18°C° 0 mm 1 m/S 736 mmHg 91%
    03:00 +18°C° 0 mm 1 m/S 736 mmHg 92%
    04:00 +18°C° 0 mm 1 m/S 736 mmHg 93%
    05:00 +19°C° 0 mm 1 m/S 736 mmHg 89%
    06:00 +20°C° 0 mm 1 m/S 736 mmHg 85%
    07:00 +21°C° 0 mm 1 m/S 736 mmHg 81%
    08:00 +23°C° 0 mm 1 m/S 736 mmHg 73%
    09:00 +25°C° 0 mm 1 m/S 736 mmHg 65%
    10:00 +27°C° 0 mm 1 m/S 736 mmHg 57%
    11:00 +28°C° 0 mm 1 m/S 736 mmHg 53%
    12:00 +29°C° 0 mm 1 m/S 736 mmHg 50%
    13:00 +30°C° 0 mm 1 m/S 735 mmHg 47%
    14:00 +30°C° 0 mm 1 m/S 735 mmHg 47%
    15:00 +29°C° 0 mm 1 m/S 735 mmHg 48%
    16:00 +29°C° 0 mm 1 m/S 735 mmHg 49%
    17:00 +28°C° 0 mm 1 m/S 735 mmHg 54%
    18:00 +28°C° 0 mm 1 m/S 735 mmHg 60%
    19:00 +27°C° 0 mm 1 m/S 734 mmHg 65%
    20:00 +25°C° 0 mm 1 m/S 735 mmHg 69%
    21:00 +24°C° 0 mm 1 m/S 735 mmHg 74%
    22:00 +22°C° 0 mm 1 m/S 735 mmHg 78%
    23:00 +21°C° 0 mm 1 m/S 735 mmHg 80%

    25 Juli, Mittwoch

    Zeit Temperatur Niederschläge Wind Luftdruck Luftfeuchtigkeit
    00:00 +21°C° 0 mm 1 m/S 735 mmHg 82%
    01:00 +20°C° 0 mm 1 m/S 735 mmHg 85%
    02:00 +20°C° 0 mm 1 m/S 735 mmHg 86%
    03:00 +20°C° 0 mm 1 m/S 735 mmHg 87%
    04:00 +19°C° 0 mm 1 m/S 735 mmHg 88%
    05:00 +20°C° 0 mm 1 m/S 735 mmHg 83%
    06:00 +22°C° 0 mm 1 m/S 735 mmHg 79%
    07:00 +23°C° 0 mm 1 m/S 735 mmHg 75%
    08:00 +25°C° 0 mm 1 m/S 735 mmHg 68%
    09:00 +26°C° 0 mm 1 m/S 735 mmHg 61%
    10:00 +28°C° 0 mm 2 m/S 736 mmHg 53%
    11:00 +29°C° 0 mm 2 m/S 735 mmHg 50%
    12:00 +30°C° 0 mm 2 m/S 735 mmHg 46%
    13:00 +31°C° 0 mm 2 m/S 735 mmHg 43%
    14:00 +31°C° 0 mm 2 m/S 735 mmHg 43%
    15:00 +31°C° 0 mm 1 m/S 735 mmHg 44%
    16:00 +31°C° 0 mm 1 m/S 734 mmHg 44%
    17:00 +30°C° 0 mm 1 m/S 734 mmHg 49%
    18:00 +29°C° 0 mm 1 m/S 734 mmHg 55%
    19:00 +28°C° 0 mm 1 m/S 734 mmHg 60%
    20:00 +27°C° 0 mm 1 m/S 735 mmHg 63%
    21:00 +25°C° 0 mm 1 m/S 735 mmHg 67%
    22:00 +24°C° 0 mm 1 m/S 735 mmHg 70%
    23:00 +23°C° 0 mm 1 m/S 735 mmHg 73%

    26 Juli, Donnerstag

    Zeit Temperatur Niederschläge Wind Luftdruck Luftfeuchtigkeit
    00:00 +22°C° 0 mm 1 m/S 735 mmHg 77%
    01:00 +21°C° 0 mm 1 m/S 735 mmHg 80%
    02:00 +21°C° 0 mm 1 m/S 735 mmHg 81%
    03:00 +21°C° 0 mm 1 m/S 736 mmHg 83%
    04:00 +18°C° 0 mm 0 m/S 736 mmHg 84%
    05:00 +19°C° 0 mm 0 m/S 736 mmHg 81%
    06:00 +20°C° 0 mm 0 m/S 736 mmHg 79%
    07:00 +21°C° 0 mm 0 m/S 736 mmHg 76%
    08:00 +25°C° 0,1 mm 1 m/S 737 mmHg 70%
    09:00 +27°C° 0,1 mm 1 m/S 737 mmHg 65%
    10:00 +29°C° 0,1 mm 1 m/S 737 mmHg 60%
    11:00 +29°C° 0,5 mm 1 m/S 737 mmHg 57%
    12:00 +30°C° 0,5 mm 1 m/S 737 mmHg 53%
    13:00 +31°C° 0,5 mm 1 m/S 737 mmHg 50%
    14:00 +31°C° 0,2 mm 1 m/S 737 mmHg 50%
    15:00 +31°C° 0,2 mm 2 m/S 736 mmHg 50%
    16:00 +31°C° 0,2 mm 2 m/S 736 mmHg 50%
    17:00 +30°C° 0,1 mm 2 m/S 736 mmHg 55%
    18:00 +29°C° 0,1 mm 2 m/S 736 mmHg 59%
    19:00 +28°C° 0,1 mm 2 m/S 736 mmHg 64%
    20:00 +26°C° 0 mm 2 m/S 736 mmHg 68%
    21:00 +25°C° 0 mm 2 m/S 736 mmHg 71%
    22:00 +23°C° 0 mm 1 m/S 737 mmHg 75%
    23:00 +23°C° 0 mm 1 m/S 737 mmHg 76%
    Mehr zeigen